Location: Peach Mountain Observatory
(42.3967°N, 83.9367°W)
Time: 08:01:41
(UTC-04:00)

deb Explorer IX - Pass Details

Date: 26 January 2020
Orbit: 547 x 1100 km, 38.8° (Epoch: 05 April)

Event Time Altitude Azimuth Distance (km) Brightness Sun altitude
Rises 04:16:16 0° 275° (W) 3,885 - -40.4°
Reaches altitude 10° 04:20:11 10° 256° (WSW) 2,874 - -39.6°
Maximum altitude 04:24:16 16° 220° (SW) 2,352 - -38.9°
Drops below altitude 10° 04:28:08 10° 184° (S) 2,689 - -38.2°
Exits shadow 04:31:36 - 164° (SSE) 3,509 ? -37.6°
Sets 04:31:39 0° 164° (SSE) 3,522 ? -37.6°
